Home   Weather   Tracy   Past weeks
Flag for USA

Past Weather in Tracy, California, USA — Yesterday and Last 2 Weeks

Now
79 °F

Partly sunny.


Feels Like: 79 °F
Forecast: 78 / 56 °F
Wind: 5 mph from North

Location: Stockton Metropolitan Airport

Current Time: May 23, 2019 at 2:37:16 pm

Latest Report: May 23, 2019 at 1:55 pm


Visibility: 10 mi

Pressure: 29.78 "Hg

Humidity: 38%

Dew Point: 51 °F

Location of TracyLocation

Past Weather in Tracy — Graph

°F

Tracy Temperature Yesterday

Maximum temperature yesterday: 75 °F (at 3:55 pm)
Minimum temperature yesterday: 52 °F (at 5:55 am)
Average temperature yesterday: 63 °F

High & Low Weather Summary for the Past Weeks

 TemperatureHumidityPressure
High85 °F (May 12, 4:55 pm)97% (May 20, 2:55 am)30.12 "Hg (May 20, 2:55 am)
Low46 °F (May 20, 3:16 am)22% (May 13, 2:11 pm)29.66 "Hg (May 9, 5:55 pm)
Average62 °F66%29.87 "Hg
* Reported May 8 12:55 pm — May 23 12:55 pm, Tracy. Weather by CustomWeather, © 2019

Note: Actual official high and low records may vary slightly from our data, if they occured in-between our weather recording intervals... More about our weather records

Advertising

Tracy Weather History for the Previous 24 Hours

Scroll right to see more
 ConditionsComfort  
Time TempWeatherWind HumidityBarometerVisibility
12:55 pm
Thu, May 23
75 °FPassing clouds.8 mph43%29.78 "Hg10 mi
11:55 am72 °FSunny.5 mph49%29.78 "Hg10 mi
10:55 am69 °FPassing clouds.No wind55%29.78 "Hg10 mi
10:28 am67 °FScattered clouds.3 mph57%29.78 "Hg10 mi
9:55 am66 °FSunny.5 mph61%29.78 "Hg10 mi
9:03 am63 °FPassing clouds.5 mph70%29.77 "Hg10 mi
7:55 am58 °FSunny.6 mph87%29.75 "Hg10 mi
6:55 am56 °FSunny.5 mph90%29.74 "Hg10 mi
5:55 am56 °FSunny.3 mph87%29.72 "Hg10 mi
4:55 am57 °FClear.3 mph83%29.72 "Hg10 mi
3:55 am58 °FClear.No wind84%29.72 "Hg10 mi
2:55 am62 °FClear.8 mph73%29.71 "Hg10 mi
1:55 am63 °FClear.14 mph70%29.71 "Hg10 mi
12:55 am62 °FClear.7 mph70%29.71 "Hg10 mi
11:55 pm
Wed, May 22
63 °FClear.10 mph65%29.72 "Hg10 mi
10:55 pm65 °FPassing clouds.15 mph61%29.72 "Hg10 mi
9:55 pm65 °FPassing clouds.12 mph61%29.74 "Hg10 mi
8:55 pm66 °FClear.12 mph56%29.75 "Hg10 mi
7:55 pm71 °FSunny.12 mph45%29.73 "Hg10 mi
6:55 pm75 °FSunny.15 mph34%29.73 "Hg10 mi
5:55 pm75 °FSunny.15 mph34%29.72 "Hg10 mi
4:55 pm75 °FSunny.18 mph33%29.72 "Hg10 mi
3:55 pm75 °FSunny.16 mph33%29.74 "Hg10 mi
2:55 pm74 °FSunny.20 mph40%29.77 "Hg10 mi
Weather by CustomWeather, © 2019

See weather overview